Temp
13 11 11 11 11 13 13 12 13 14 14 14 12 11 13 14 13 13 15 15 15 16 18 16 15 15 15 15 15 15 15 14 13 12 10 9 9 9 9 9 9 9 9 10
11 11 12 12 12 13 13 13 12 11 12 12 12 11 11 12 12 15 16 16 17 17 17 16 15 15 15 15 15 15 14 13 13 11 10 9 9 9 9 8 8 9 9 9
10 14 11 12 11 12 11 11 11 13 13 12 11 10 11 13 13 15 16 17 17 18 18 17 15 15 14 14 15 14 14 13 11 10 8 8 8 9 8 8 7 8 8 8
10 12 12 11 11 11 11 11 12 12 13 11 12 10 11 12 12 11 16 17 18 18 18 17 16 15 15 15 14 13 13 12 11 9 8 8 9 9 8 8 7 8 8 8
12 10 11 11 11 11 12 11 11 12 11 10 10 9 13 12 12 13 15 18 19 19 19 18 17 16 16 15 14 13 12 11 10 9 8 8 8 8 8 8 7 7 7 7
11 12 11 12 11 12 10 11 9 7 8 9 11 10 12 12 13 13 14 18 18 18 18 16 14 14 14 13 12 12 11 10 9 8 7 8 8 8 8 8 7 7 7 7
11 11 12 12 11 11 12 11 9 9 7 10 8 9 15 13 12 13 15 19 19 17 16 15 14 13 13 13 12 11 10 10 9 8 7 8 8 7 8 8 8 7 7 7
11 11 10 10 12 12 10 11 9 10 8 8 8 8 11 10 13 14 16 16 16 15 15 16 16 13 12 12 11 11 10 9 8 7 7 7 7 7 7 8 8 7 8 8
10 10 10 10 11 13 10 9 11 11 -0 5 10 10 11 10 9 11 14 14 15 15 16 16 14 12 12 11 12 11 10 9 8 7 7 6 6 6 7 7 7 7 7 7
12 11 9 10 12 10 11 9 9 6 8 6 9 9 12 14 11 11 10 14 16 15 15 15 14 12 11 11 11 10 10 10 8 7 6 5 6 6 6 6 7 7 7 7
12 11 9 9 8 9 9 9 10 9 7 8 6 12 8 13 12 12 11 18 17 16 15 15 14 13 11 10 10 10 9 8 7 6 6 5 6 6 6 6 6 6 7 6
10 10 6 8 8 8 9 10 10 8 8 6 6 14 11 10 11 12 14 18 17 17 16 14 14 12 11 10 10 9 9 8 7 6 6 5 5 6 6 5 6 6 6 6
10 9 5 8 8 7 8 8 11 9 6 10 8 13 7 9 10 13 14 17 16 16 18 14 13 13 11 11 10 9 9 8 7 6 5 5 5 5 5 5 5 5 5 5
12 9 9 12 11 8 7 7 9 10 9 11 11 14 13 13 9 11 14 17 16 16 17 15 13 13 13 11 11 10 9 8 6 5 5 5 5 5 5 5 5 5 5 4
10 8 9 10 11 9 8 8 8 9 11 10 13 13 15 13 10 13 17 17 15 16 16 17 16 14 13 12 11 10 8 8 7 5 5 5 5 5 4 4 4 4 4 4
8 7 8 8 9 9 8 8 8 9 11 11 12 12 13 13 14 12 15 16 15 15 16 16 17 15 13 12 12 11 10 8 7 6 5 5 4 4 4 4 4 3 3 3
7 6 6 8 8 8 7 9 10 9 10 10 10 12 10 13 11 13 13 13 14 15 16 16 16 16 16 15 12 11 10 8 7 6 5 5 4 4 3 3 3 3 3 2
6 7 6 8 7 8 10 11 11 11 11 10 10 12 12 12 14 13 13 13 13 14 14 14 14 15 15 15 12 10 9 9 7 6 5 4 3 3 3 2 2 2 2 1
8 8 7 8 9 9 9 8 8 8 10 11 11 11 12 12 12 12 12 13 13 13 13 12 12 12 13 13 12 9 8 7 6 5 5 3 3 2 2 2 2 1 1 0
7 7 7 6 8 9 12 10 12 8 10 12 10 11 11 11 8 11 12 12 12 12 12 12 11 10 10 11 9 8 6 6 5 5 4 4 3 2 2 2 1 -0 -1 0
7 7 7 8 8 7 5 3 10 9 9 3 6 8 9 8 11 9 9 10 10 10 11 11 11 9 8 8 6 5 4 4 4 3 4 3 2 2 1 1 -1 -1 -1 -0
7 7 7 7 7 8 3 5 8 5 3 3 4 5 5 7 9 8 7 8 9 9 9 8 8 7 6 5 4 4 3 3 3 3 2 2 1 1 -1 -1 -3 -3 -3 -3
6 6 7 6 6 1 1 1 2 2 2 2 3 4 4 5 6 6 6 6 6 6 6 6 5 5 4 4 4 4 3 3 2 1 1 0 -0 -0 -1 -2 -2 -3 -4 -3
1 -0 5 5 1 -1 1 2 2 3 3 3 3 4 4 4 4 5 5 5 6 6 5 6 5 5 4 4 3 3 2 2 2 2 1 -0 -0 -0 -1 -2 -2 -2 -2 -2
1 1 2 3 -2 -1 -0 0 2 2 2 3 4 4 4 5 5 5 5 5 5 5 5 5 5 4 4 3 3 2 2 2 2 2 1 1 0 0 -0 -1 -1 -1 -2 -2
-1 1 3 4 1 2 1 3 1 1 2 2 3 4 4 4 5 5 5 5 4 4 4 4 3 3 3 3 2 2 2 2 2 2 1 1 1 0 -0 -1 -1 -1 -1 -2
Height
1537 1544 1546 1539 1539 1539 1544 1549 1549 1544 1538 1541 1541 1537 1528 1527 1528 1526 1524 1524 1524 1522 1524 1528 1530 1532 1533 1535 1537 1539 1541 1542 1544 1545 1547 1550 1553 1556 1560 1562 1564 1566 1568 1571
1542 1544 1531 1535 1539 1541 1543 1546 1549 1544 1538 1541 1537 1533 1525 1522 1518 1516 1516 1517 1514 1515 1515 1519 1521 1523 1525 1528 1531 1534 1536 1538 1540 1542 1545 1548 1551 1553 1557 1559 1560 1563 1566 1569
1537 1529 1527 1533 1539 1544 1544 1547 1546 1544 1540 1539 1539 1533 1523 1511 1509 1508 1508 1505 1506 1504 1505 1508 1511 1513 1517 1520 1524 1528 1530 1533 1536 1538 1541 1545 1548 1551 1553 1555 1557 1560 1564 1567
1532 1524 1527 1532 1535 1537 1544 1535 1537 1541 1545 1554 1539 1543 1521 1511 1506 1502 1497 1496 1492 1493 1495 1498 1502 1504 1507 1512 1518 1522 1525 1527 1530 1533 1537 1540 1542 1545 1549 1553 1555 1558 1561 1565
1522 1524 1526 1529 1526 1530 1534 1532 1537 1538 1546 1547 1544 1551 1508 1507 1506 1497 1488 1484 1483 1485 1485 1485 1489 1494 1500 1505 1510 1515 1519 1522 1525 1529 1534 1538 1542 1546 1549 1551 1553 1555 1558 1562
1520 1519 1519 1519 1522 1523 1528 1534 1542 1548 1550 1556 1530 1538 1503 1505 1491 1485 1477 1474 1476 1478 1478 1479 1484 1488 1492 1499 1504 1509 1512 1516 1521 1525 1529 1534 1538 1541 1543 1546 1549 1552 1555 1559
1520 1517 1515 1516 1523 1526 1527 1537 1557 1560 1566 1540 1532 1534 1483 1487 1481 1474 1469 1468 1471 1473 1473 1475 1477 1479 1484 1491 1496 1501 1506 1509 1514 1519 1524 1529 1533 1537 1540 1543 1545 1547 1551 1554
1519 1522 1512 1508 1507 1518 1528 1528 1546 1554 1557 1541 1532 1522 1490 1474 1469 1468 1467 1465 1466 1468 1470 1470 1470 1473 1477 1485 1490 1495 1500 1504 1509 1514 1519 1524 1528 1532 1536 1539 1542 1545 1548 1553
1515 1513 1502 1503 1502 1506 1524 1530 1520 1532 1574 1558 1511 1490 1477 1471 1466 1464 1460 1461 1460 1463 1464 1464 1465 1468 1472 1478 1483 1489 1494 1499 1504 1509 1514 1518 1522 1526 1530 1534 1538 1542 1546 1549
1496 1508 1504 1503 1503 1506 1508 1512 1533 1543 1549 1556 1510 1502 1479 1464 1463 1457 1457 1455 1455 1458 1460 1461 1462 1464 1468 1474 1480 1485 1490 1494 1500 1505 1509 1513 1516 1521 1526 1530 1534 1537 1541 1545
1493 1500 1509 1506 1503 1503 1511 1513 1514 1521 1530 1530 1531 1477 1461 1452 1452 1453 1450 1449 1451 1453 1455 1457 1458 1460 1464 1470 1475 1480 1484 1489 1493 1498 1503 1507 1511 1516 1520 1524 1529 1532 1536 1540
1486 1493 1509 1500 1493 1494 1495 1495 1501 1517 1520 1523 1516 1454 1447 1448 1445 1447 1447 1448 1449 1449 1451 1454 1456 1457 1460 1464 1470 1474 1478 1482 1486 1492 1497 1502 1507 1510 1514 1518 1523 1527 1531 1535
1477 1491 1516 1500 1497 1496 1496 1494 1489 1499 1511 1491 1511 1445 1449 1447 1448 1448 1446 1446 1447 1448 1448 1450 1452 1453 1455 1459 1463 1467 1470 1475 1480 1485 1490 1495 1499 1503 1507 1513 1518 1523 1526 1530
1466 1481 1482 1472 1476 1481 1492 1488 1486 1488 1499 1463 1474 1435 1445 1448 1451 1446 1445 1443 1445 1446 1446 1446 1447 1448 1450 1452 1456 1459 1463 1467 1472 1477 1482 1486 1491 1496 1501 1506 1511 1515 1521 1526
1466 1478 1475 1462 1468 1475 1476 1478 1481 1480 1458 1478 1432 1457 1429 1444 1445 1442 1440 1441 1440 1441 1441 1442 1441 1441 1443 1445 1447 1450 1454 1458 1463 1468 1473 1478 1484 1489 1494 1500 1505 1510 1515 1520
1463 1468 1473 1466 1458 1466 1469 1471 1466 1460 1453 1461 1441 1438 1436 1437 1436 1437 1433 1433 1432 1433 1434 1435 1435 1435 1435 1437 1439 1441 1444 1447 1455 1460 1465 1471 1476 1482 1488 1495 1500 1505 1511 1515
1459 1466 1469 1459 1455 1467 1470 1441 1437 1453 1445 1445 1449 1405 1430 1427 1426 1425 1424 1425 1426 1427 1425 1426 1428 1428 1428 1428 1430 1433 1436 1441 1447 1452 1458 1463 1470 1476 1483 1490 1496 1501 1506 1511
1446 1451 1458 1449 1457 1447 1422 1417 1424 1429 1425 1434 1428 1402 1416 1418 1417 1414 1417 1418 1412 1413 1416 1418 1419 1419 1420 1420 1421 1424 1427 1431 1437 1444 1451 1457 1464 1472 1479 1486 1491 1496 1501 1506
1430 1438 1441 1436 1432 1428 1419 1404 1416 1425 1413 1412 1408 1404 1405 1409 1416 1397 1409 1408 1405 1406 1406 1407 1408 1410 1411 1410 1412 1414 1417 1423 1429 1434 1441 1449 1459 1467 1474 1480 1485 1491 1496 1501
1421 1429 1426 1432 1422 1415 1391 1393 1398 1409 1414 1380 1402 1394 1392 1406 1417 1387 1399 1399 1399 1399 1399 1400 1400 1402 1404 1404 1405 1407 1410 1414 1418 1424 1432 1444 1452 1459 1466 1473 1479 1484 1490 1496
1404 1408 1405 1407 1409 1408 1394 1392 1394 1412 1398 1390 1390 1388 1391 1398 1395 1393 1395 1396 1395 1394 1393 1393 1393 1396 1398 1400 1404 1406 1408 1411 1418 1425 1431 1438 1446 1453 1461 1468 1473 1478 1484 1489
1394 1395 1394 1401 1400 1394 1389 1394 1396 1392 1388 1391 1389 1390 1390 1392 1393 1392 1390 1393 1393 1391 1390 1389 1390 1392 1395 1399 1402 1406 1411 1415 1420 1426 1431 1437 1442 1448 1454 1460 1464 1470 1478 1482
1389 1387 1390 1395 1386 1388 1389 1389 1391 1389 1389 1390 1391 1390 1390 1390 1390 1390 1391 1390 1390 1392 1392 1392 1392 1394 1399 1401 1405 1410 1415 1419 1424 1427 1430 1434 1438 1443 1449 1454 1458 1464 1469 1473
1387 1380 1382 1388 1383 1383 1384 1386 1389 1389 1389 1390 1390 1389 1388 1388 1391 1391 1394 1395 1394 1395 1396 1397 1399 1399 1401 1405 1411 1415 1418 1421 1425 1427 1430 1433 1436 1440 1444 1450 1456 1461 1465 1468
1377 1379 1377 1378 1379 1379 1380 1381 1383 1384 1386 1389 1391 1393 1390 1389 1389 1392 1394 1396 1398 1397 1398 1401 1403 1404 1403 1406 1411 1415 1418 1421 1425 1428 1431 1434 1438 1441 1445 1449 1453 1457 1461 1464
1367 1367 1369 1367 1366 1365 1366 1371 1379 1382 1387 1389 1389 1391 1392 1394 1392 1386 1390 1394 1397 1398 1399 1401 1405 1407 1407 1410 1412 1415 1419 1422 1425 1429 1431 1435 1438 1441 1444 1447 1450 1453 1456 1459
Wind_Speed
2 3 7 12 9 4 5 4 5 4 3 4 7 10 13 15 17 22 27 30 35 37 33 32 33 33 33 32 29 26 25 24 26 28 28 29 28 25 24 21 18 20 20 19
4 7 10 4 3 3 2 3 6 5 4 5 8 12 11 7 14 31 35 36 40 40 40 37 38 38 37 35 32 29 27 26 27 29 29 29 28 27 24 22 18 17 20 19
8 5 5 8 4 5 5 6 5 8 3 3 5 8 9 11 22 30 32 41 42 45 46 44 43 43 39 38 36 32 29 27 28 31 30 30 30 28 28 25 21 22 21 19
6 4 6 5 5 8 6 8 6 5 2 4 2 6 6 6 11 9 33 38 46 48 47 44 45 47 44 41 37 33 30 29 31 31 32 31 33 34 30 26 22 24 22 20
8 7 7 6 7 8 7 4 6 2 3 3 4 4 4 1 8 13 24 41 41 40 41 44 44 47 46 43 39 35 32 32 31 32 31 31 32 30 29 27 25 26 24 23
4 1 6 7 2 6 7 5 5 4 2 4 9 9 6 7 9 6 21 36 31 26 29 33 35 39 48 43 39 36 35 34 33 34 34 33 32 32 33 31 30 29 28 28
2 5 3 4 5 2 4 6 2 4 1 8 4 5 18 9 10 13 15 30 27 19 18 22 29 36 44 46 42 40 38 37 36 36 35 35 34 33 32 31 32 32 33 34
9 7 11 7 9 8 8 8 6 7 4 5 3 7 6 10 20 25 29 34 31 27 21 23 25 31 38 45 44 42 40 39 39 38 37 36 35 34 34 31 32 33 34 33
7 6 2 2 3 10 5 6 4 1 2 2 6 9 8 11 13 15 28 25 28 22 20 22 25 27 34 44 46 43 41 41 40 39 38 38 37 36 35 34 33 34 35 33
5 3 1 1 3 2 6 7 3 2 2 5 6 7 8 6 9 15 11 24 27 20 17 19 22 25 30 39 43 42 41 41 40 40 41 40 39 37 36 36 35 37 37 34
4 4 1 3 7 11 4 5 2 4 5 5 3 9 8 14 10 10 12 26 22 17 16 17 19 22 26 35 42 41 41 41 41 43 42 41 39 38 37 37 38 40 38 35
9 4 5 9 1 2 2 1 9 4 6 5 2 18 3 8 10 12 20 16 12 11 12 14 18 22 26 34 40 41 40 42 43 44 42 41 38 38 39 40 42 42 39 35
9 4 1 5 3 4 5 7 10 2 3 17 4 16 4 2 4 13 14 12 10 9 13 15 19 24 29 34 38 40 41 43 44 44 43 42 41 41 42 42 44 43 40 36
15 5 9 15 4 5 5 7 12 14 7 14 18 31 7 4 7 8 15 12 13 13 15 17 19 24 30 34 38 40 41 43 45 46 46 44 44 44 43 44 46 44 40 37
9 8 7 19 15 5 7 8 17 23 32 13 35 18 24 14 12 19 26 31 26 21 20 23 25 27 30 35 38 40 42 44 46 48 48 47 45 44 44 46 46 44 41 38
3 8 12 24 25 17 17 9 20 27 29 24 34 31 4 5 9 15 30 34 32 29 28 31 32 32 33 35 38 41 43 46 47 48 49 47 46 45 45 47 46 43 40 39
11 7 7 14 17 12 7 31 25 16 20 23 24 38 5 18 16 24 31 30 34 37 38 36 36 38 38 38 38 40 44 46 48 48 49 48 46 45 45 45 44 41 40 38
8 14 7 9 4 12 21 20 21 22 26 20 23 34 20 23 35 37 30 32 40 39 38 38 37 40 39 39 38 37 42 46 47 48 49 47 45 44 43 42 41 40 38 37
18 15 9 8 16 13 11 11 9 10 24 25 29 28 31 38 26 43 36 42 45 45 44 40 37 38 39 39 37 36 38 43 45 48 50 48 44 42 41 41 40 38 34 36
16 15 11 5 9 13 23 10 19 7 13 21 20 28 28 14 9 22 18 19 21 20 19 21 23 26 30 32 32 33 35 37 44 48 47 41 40 41 41 39 37 32 36 34
20 17 22 17 11 5 7 3 13 9 9 5 4 17 20 10 15 13 6 10 14 19 20 17 15 16 19 21 23 25 28 32 33 33 35 37 37 36 36 35 34 30 32 34
8 5 11 12 12 16 3 4 11 4 4 4 3 4 6 11 16 20 16 13 20 17 9 6 5 7 8 10 12 16 18 19 21 22 23 26 29 32 37 36 31 30 30 34
6 7 5 8 5 4 6 1 2 2 2 1 0 2 2 3 4 5 3 2 3 4 6 8 7 9 11 10 7 7 9 10 13 15 15 17 20 23 25 23 25 30 36 35
4 3 5 2 5 5 13 12 8 9 9 7 7 9 8 6 7 10 9 11 15 16 14 13 13 12 11 10 8 7 6 6 9 11 13 15 16 18 20 23 28 30 31 33
3 7 4 4 2 2 13 16 16 14 12 11 8 4 6 8 12 10 9 9 9 7 7 6 5 6 8 11 11 11 11 11 12 13 14 16 18 20 22 24 25 25 25 25
6 6 6 5 7 4 3 25 21 15 11 7 5 3 4 4 6 10 7 6 7 8 10 11 10 9 11 11 11 10 10 9 9 10 11 12 14 17 19 20 22 23 23 24
Wind_Direction
97 107 206 203 202 149 147 182 218 240 225 189 231 253 265 245 234 240 241 239 238 240 245 236 235 235 233 231 229 229 228 222 215 211 205 204 202 203 209 211 216 216 202 197
46 234 231 174 171 179 162 201 250 283 249 184 266 258 260 223 231 235 240 243 243 245 245 239 234 233 233 231 229 227 225 223 217 214 215 210 200 198 203 205 209 197 192 191
174 206 141 158 162 181 223 204 221 227 352 259 330 281 246 251 241 251 249 254 255 252 250 244 234 234 231 227 226 225 223 221 215 211 209 203 199 202 201 201 202 194 190 189
234 237 147 168 193 164 239 209 199 226 145 244 146 282 279 252 257 224 252 253 255 254 253 251 241 233 231 228 224 223 221 218 216 211 210 211 208 202 200 199 199 195 191 192
234 178 177 182 196 163 227 128 175 145 175 5 199 277 245 335 264 257 254 257 259 260 259 254 247 238 233 227 222 220 218 217 214 209 206 208 211 213 205 201 204 198 194 188
241 241 174 201 96 157 145 81 55 60 103 267 209 194 206 200 222 241 249 260 267 270 266 261 253 241 229 224 219 218 216 215 211 206 205 209 211 212 211 208 206 200 193 184
150 219 198 166 100 67 120 102 306 322 17 241 47 208 258 287 259 228 251 266 274 269 275 263 248 237 229 221 218 215 214 214 212 208 207 210 213 216 222 220 211 201 191 185
189 263 169 189 191 168 194 166 170 215 208 267 138 236 247 233 264 256 260 266 271 272 274 271 257 241 233 219 217 215 214 214 214 209 210 210 213 216 218 223 215 204 197 190
173 259 212 171 150 152 197 204 183 7 119 355 231 272 287 253 266 271 254 260 265 268 269 264 253 242 232 220 218 218 216 218 215 209 210 212 213 215 217 218 211 204 197 193
206 273 229 196 116 51 161 165 76 2 242 257 270 265 228 259 245 255 268 257 265 266 260 260 254 243 233 223 219 219 220 222 217 216 215 214 214 215 217 216 210 202 198 197
165 178 234 134 208 171 148 198 148 142 166 203 298 260 219 218 211 228 248 256 271 280 269 260 254 244 234 222 220 221 222 222 218 219 218 218 218 218 216 214 209 203 201 201
212 172 208 205 226 185 40 246 173 161 220 237 204 264 163 230 221 214 250 262 277 287 291 264 252 242 229 220 221 223 224 223 221 220 221 220 220 218 214 212 208 204 204 204
163 204 337 326 10 8 217 200 205 142 71 241 155 265 12 137 257 232 239 260 273 272 282 267 244 239 232 227 225 226 227 227 223 220 221 221 220 218 216 211 208 207 207 207
165 164 199 231 173 140 195 210 198 201 223 247 235 254 263 276 263 279 251 258 271 278 276 272 252 240 237 234 233 232 230 228 224 222 221 221 221 219 217 212 209 209 210 211
148 221 244 257 260 221 200 204 202 209 228 210 254 246 259 235 233 246 272 284 270 259 256 265 264 255 241 236 235 234 232 230 225 223 223 222 221 220 218 213 210 212 213 214
158 232 233 257 251 241 249 225 219 218 232 231 249 260 130 245 264 250 251 254 259 261 266 268 263 259 256 247 240 237 234 231 226 223 223 222 221 219 217 213 213 214 215 217
181 194 200 241 248 240 257 241 238 222 228 222 238 249 141 263 247 253 260 259 259 267 268 265 268 268 266 261 248 241 237 233 228 224 224 223 221 218 216 214 215 216 218 220
178 194 210 233 182 224 238 255 231 227 236 222 245 256 248 256 259 269 265 265 269 269 272 271 270 267 267 265 256 245 238 236 230 225 225 223 220 218 216 215 216 218 220 223
210 212 215 226 239 255 289 254 171 177 247 230 231 253 255 255 274 277 268 270 273 278 283 285 282 273 267 263 257 246 238 234 228 225 224 222 219 218 218 218 219 220 224 227
203 218 216 153 226 229 241 221 191 136 248 249 209 240 249 228 242 264 278 272 273 275 279 280 276 274 266 260 253 245 237 231 226 224 223 223 222 222 221 221 221 229 234 232
207 211 227 223 236 256 243 189 138 156 238 23 232 246 259 204 232 267 274 274 288 295 296 282 268 264 264 256 249 240 235 231 229 225 223 221 220 222 222 219 235 232 233 239
186 201 213 220 226 236 132 84 188 250 355 351 348 310 285 256 252 269 290 282 280 285 285 271 256 239 234 234 232 231 228 223 220 219 218 217 214 215 216 231 223 229 232 233
207 194 196 193 209 180 202 350 207 172 176 160 17 345 268 267 286 290 330 52 100 92 94 103 103 115 113 111 119 155 173 185 193 195 203 219 221 221 222 220 221 223 229 235
259 192 181 182 211 211 200 200 190 161 142 125 120 93 94 99 103 109 106 106 103 98 83 91 96 102 98 104 118 144 164 193 212 209 204 204 208 212 216 222 227 231 234 236
180 139 166 278 182 151 228 203 185 159 139 132 125 110 101 117 131 130 125 128 120 117 124 143 171 176 173 176 182 189 188 192 200 206 213 217 220 222 224 226 227 230 232 236
186 172 183 214 183 153 188 199 181 170 159 156 147 166 189 193 167 150 152 156 154 138 136 137 136 138 136 140 147 151 156 168 183 196 204 213 219 220 221 224 226 225 229 235